Location: Unspecified
(0.0000°N, 0.0000°E)
Time: 04:24:55
(UTC+00:00)

Hubble Space Telescope - Pass Details

Date: 09 November 2019
Orbit: 536 x 540 km, 28.5° (Epoch: 10 November)

Event Time Altitude Azimuth Distance (km) Brightness Sun altitude
Rises 19:42:24 0° 248° (WSW) 2,675 5.6 -28.2°
Reaches altitude 10° 19:44:42 10° 253° (WSW) 1,783 4.4 -28.8°
Enters shadow 19:47:02 30° 269° (W) 964 2.5 -29.3°
